Regional & State Weather Roundups


939 
ASUS41 KAKQ 241314
RWRAKQ
REGIONAL WEATHER ROUNDUP
NATIONAL WEATHER SERVICE WAKEFIELD VA
900 AM EDT MON JUN 24 2019
Note: "fair" indicates few or no clouds below 12,000 feet with no
significant weather and/or obstructions to visibility. * = Denotes
station may not report precipitation (e.g., rain,snow,etc.),
thunder or fog.
VAZ042-051-052>054-056-241400-
NORTHERN VIRGINIA
  
CITY           SKY/WX    TMP DP  RH WIND       PRES   REMARKS
WASH NATIONAL  FAIR      76  62  62 S6        29.91S                  
DULLES         PTSUNNY   74  62  66 VRB3      29.91S                  
FORT BELVOIR   SUNNY     75  64  67 S6        29.91S                  
QUANTICO       CLOUDY    74  66  76 S8        29.92S                  
FREDERICKSBRG* FAIR      75  67  76 S5        29.91S                  
STAFFORD*      FAIR      79  65  63 S5        29.95S                  
WARRENTON      CLOUDY    73  61  66 S3        29.91S                  
CULPEPER*      CLOUDY    74  62  66 CALM      29.92S                  
MANASSAS*      FAIR      73  64  73 CALM      29.92R                  
LEESBURG*      FAIR      73  66  78 CALM      29.93R                  
WINCHESTER     PTSUNNY   72  63  73 SW5       29.94R                  
FRONT ROYAL*   PTSUNNY   72  64  78 S6        29.92R                  
LURAY*         FAIR      73  64  73 S6        29.94S                  
$$
VAZ048-049-060>072-079>083-241400-
CENTRAL AND SOUTH CENTRAL VIRGINIA
  
CITY           SKY/WX    TMP DP  RH WIND       PRES   REMARKS
RICHMOND       FAIR      77  67  71 SW9       29.93F                  
CHESTERFIELD*  FAIR      76  68  76 SW7       29.94S                  
PETERSBURG*    FAIR      76  66  73 SW8       29.94F                  
HANOVER        FAIR      77  65  66 SW10      29.94S                  
TAPPAHANNOCK*  FAIR      75  69  79 S7        29.94S                  
QUINTON*       FAIR      75  68  78 SW3       29.93S                  
CHARLOTTSVILLE FAIR      76  63  64 CALM      29.93R                  
GORDONSVILLE*  FAIR      73  65  77 SW6       29.92R                  
ORANGE*        FAIR      73  63  68 S6        29.92R                  
LOUISA*        FAIR      74  65  74 W5        29.96S                  
BUMPASS*       FAIR      74  67  78 SW5       29.92S                  
FARMVILLE*     FAIR      73  67  81 SW7       29.93S                  
CREWE*         FAIR      75  73  93 SW7       29.94R                  
FORT PICKETT*  FAIR      75  73  91 SW10      29.95S                  
CHASE CITY*    FAIR      74  67  80 CALM      29.96S                  
CLARKSVILLE*   FAIR      73  70  88 S7        29.95S                  
SOUTH HILL*    FAIR      74  71  91 S7        30.01S                  
LAWRENCEVILLE* FAIR      76  70  82 SE5       29.96S                  
EMPORIA*       FAIR      74  68  81 S3        29.97S                  
$$
VAZ088>098-241400-
SOUTHEAST VIRGINIA
  
CITY           SKY/WX    TMP DP  RH WIND       PRES   REMARKS
NORFOLK        FAIR      78  66  66 W10       29.95S                  
VIRGINIA BEACH FAIR      76  66  71 SW9       29.95S                  
NORFOLK NAVAL  FAIR      77  67  71 SW9       29.96S                  
WEST POINT*    FAIR      76  68  76 SW6       29.95F                  
SALUDA*        FAIR      76  70  80 W6        29.94S                  
NEWPORT NEWS   FAIR      77  66  68 W10       29.95S                  
LANGLEY AFB    MOSUNNY   77  68  73 SW9       29.95S                  
FORT EUSTIS    MOSUNNY   76  68  76 W6        29.93S                  
WILLIAMSBURG*  FAIR      75  66  73 W5        29.96R                  
HR EXEC AP*    FAIR      76  67  73 SW6       29.96F                  
FRANKLIN*      FAIR      75  69  81 SW3       29.96R                  
US460-WAKEFLD  FAIR      77  67  71 SW6       29.95S                  
$$
VAZ020-022-025-037-045-241400-
WEST CENTRAL AND SOUTHWEST VIRGINIA
  
CITY           SKY/WX    TMP DP  RH WIND       PRES   REMARKS
STAUNTON*      FAIR      75  64  69 CALM      29.97S                  
WAYNESBORO*    FAIR      74  67  78 CALM      29.97S                  
HOT SPRINGS VA PTSUNNY   70  69  96 W15       30.08S                  
LYNCHBURG      FAIR      74  66  76 S7        29.96R                  
DANVILLE       FAIR      73  68  84 SW6       29.97R                  
SOUTH BOSTON*  FAIR      75  69  80 CALM      29.96S                  
MARTINSVILLE   NOT AVBL                                               
ROANOKE        FAIR      75  66  73 W7        29.98S                  
BLACKSBURG     FAIR      72  69  92 NW3       30.05S                  
DUBLIN*        FAIR      73  68  83 CALM      30.03S                  
MARION*        FAIR      75  71  87 W7        30.06S                  
HILLSVILLE*    FAIR      69  68  96 SW5       30.05R                  
RICHLANDS*       N/A     73  67  80 SW6       30.04S                  
WISE*          FAIR      75  66  73 SW15G21   30.04R                  
ABINGDON*      FAIR      75  69  82 CALM      30.02R                  
$$
MDZ021>025-VAZ099-100-241400-
SOUTHERN MARYLAND AND THE DELMARVA PENINSULA
  
CITY           SKY/WX    TMP DP  RH WIND       PRES   REMARKS
PATUXENT RIVER FAIR      76  68  76 SW8       29.92S                  
BAY BRIDGE APT FAIR      77  64  65 SW9G18    29.90F                  
LEONARDTOWN    FAIR      73  64  73 SW7       29.93F                  
DOVER          FAIR      77  64  65 SW7       29.91S                  
GEORGETOWN     FAIR      77  66  68 SW7       29.93S                  
EASTON         SUNNY     79  66  65 S9        29.95S                  
CAMBRIDGE      SUNNY     75  66  73 VRB5      29.92F                  
SALISBURY      FAIR      77  68  73 SW7       29.93S                  
TANGIER        FAIR      77  70  78 SW13      29.94S                  
OCEAN CITY     FAIR      78  66  66 W9        29.94S                  
WALLOPS ISLAND FAIR      81  67  62 SW7       29.94S                  
ACCOMACK*      FAIR      79  67  67 W9        29.94S                  
$$
NCZ012>017-030>032-241400-
NORTH CENTRAL AND EASTERN NORTH CAROLINA
  
CITY           SKY/WX    TMP DP  RH WIND       PRES   REMARKS
ROANOKE RAPIDS FAIR      73  72  94 SW5       29.96S                  
RALEIGH        FAIR      77  69  76 SW8       29.97S                  
ELIZABETH CITY FAIR      78  70  76 SW7       29.96S                  
AHOSKIE*       FAIR      75  70  86 SW5       29.97R                  
EDENTON*       FAIR      78  71  77 W7        29.98R                  
CURRITUCK*     FAIR      77  70  78 MISG      29.96F                  
KILL DEVIL HLS FAIR      78  67  69 MISG      29.96S                  
MANTEO         FAIR      77  68  72 CALM      29.98R                  
CAPE HATTERAS  FAIR      83  70  64 SE3       29.97R                  
TARBORO*       FAIR      76  70  80 CALM      29.96S                  
GOLDSBORO      FAIR      77  70  79 SW3       29.96R                  
WASHINGTON     FAIR      78  70  76 S3        29.98R                  
GREENVILLE     FAIR      79  70  73 CALM      29.99R                  
NEW BERN       FAIR      78  71  79 N3        29.98S                  
WILMINGTON     FAIR      78  72  81 W5        29.97R                  
$$
VAZ048-241400-
ELSEWHERE
  
CITY           SKY/WX    TMP DP  RH WIND       PRES   REMARKS
HARRISBURG PA  FAIR      73  61  65 S3        29.89F                  
BALTIMORE      FAIR      75  63  66 CALM      29.90F                  
ANNAPOLIS      FAIR      78  64  61 S7        29.90F                  
ANDREWS AFB    FAIR      76  63  64 SW7       29.90F                  
PHILADELPHIA   FAIR      75  64  68 SW5       29.91F                  
HENDERSON NC   FAIR      73  66  78 CALM      29.97S                  
GREENSBORO     FAIR      76  71  85 SW8       29.98R                  
ROCKY MOUNT    FAIR      76  70  82 SW6       29.97S                  
$$
VAZ100-241400-
MARINE
  
STATION/POSITION TIME  TEMP    WIND        PRES    WAVE   SWELL
                       AIR SEA DIR/SP/G            HT/PER HT/PER
                 (UTC) (F)     (DEG/KT/KT) (MB)    (FT/S) (FT/S)
BRANDYWINE LGT   1230                      1013.7R
CAPE MAY NJ      1230   73 71  210/  5/  7 1013.0S
LEWES DE         1230   77 70  250/  5/ 10 1013.3S
OCEAN-CITY-INLET 1230          260/  6/  7 1014.3S
WACHAPREAGUE VA  1230   77 77  250/  7/ 11 1013.5F
THOMAS POINT MD  1300   73 74  180/  8/  9 1013.7F
COVE POINT MD    1230   73     210/  6/  8 1013.9S
SOLOMONS ISLAND  1230   75 77  230/  7/ 12 1012.8F
BISHOPS HEAD MD  1224   74 76  250/ 12/ 15 1014.0
PINEY POINT MD   1235          270/  7/  9   N/A
POTOMAC MD       1254   75     130/ 10/ 12 1012.6F
CAMBRIDGE MD     1230                      1013.2R
LEWISETTA VA     1224   74 77  240/  9/ 11 1013.4
RAPPAHANNOCK LGT 1224          170/ 10/ 11 1014.8
YORK RVR RNG VA  1230   75     250/  8/  9 1014.4F
YORKTOWN VA      1230   74 77  240/  6/  8 1013.4F
JAMESTOWN VA     1254   74 79              1014.5S
DOMINION TERM VA 1224   74     240/  9/ 10 1014.1
KIPTOPEKE VA     1224      74  250/  6/  8   N/A
CAPE HENRY VA    1230   75     220/  6/ 10 1014.2F
WILLOUBY STN VA  1224   73     230/  9/ 11 1013.4
S CRANEY ISL VA  1230   75     230/  6/  9 1014.0S
CAPE HENRY BUOY  1200      71                N/A     2/10
1ST LANDING BUOY 1300   75 75  260/  8/ 10 1014.0    1
DUCK PIER NC     1230   74 70  130/  7/  8 1014.3R
44100 DUCK FRF   1300      72                N/A     1/10
44056 DUCK FRF   1230      72                N/A     1/ 9
OREGON INLET NC  1224   78 77  120/  6/  8 1014.6
HATTERAS NC      1224   80 79  120/  4/  5 1014.6
CAPE LOOKOUT NC  1200   78      80/  3/  4 1014.1S
$$